Location: Boiro
(42.6475°N, 8.8834°W)
Time: 15:08:42
(UTC+01:00)

Vanguard 2 - Pass Details

Date: 06 December 2021
Orbit: 553 x 2936 km, 32.9° (Epoch: 21 January)

Event Time Altitude Azimuth Distance (km) Brightness Sun altitude
Rises 17:40:04 0° 260° (W) 3,274 12.2 2.6°
Reaches altitude 10° 17:42:26 10° 249° (WSW) 2,560 12.2 2.2°
Maximum altitude 17:47:44 30° 189° (S) 1,968 10.2 1.4°
Drops below altitude 10° 17:55:41 10° 133° (SE) 3,916 11.0 0.2°
Sets 18:00:15 0° 125° (SE) 5,348 11.6 -0.6°
